Odessa, TX

12:52 PM CDT on July 27, 2016 (GMT -0500)
Odessa-Schlemeyer

Weather History for KODO - March, 2014

Change the Weather History Date:

Tuesday, March 11, 2014

  Actual Average (KMAF) Record (KMAF)
Temperature  
Mean Temperature 65 °F 54 °F  
Max Temperature 84 °F 69 °F 91 °F (1989)
Min Temperature 48 °F 40 °F 10 °F (1948)
Degree Days  
Heating Degree Days 0 11  
Month to date heating degree days 133  
Since 1 July heating degree days 2370  
Cooling Degree Days 0 0  
Month to date cooling degree days 0  
Year to date cooling degree days 2  
Growing Degree Days 15 (Base 50)    
Moisture  
Dew Point 26 °F    
Average Humidity 34    
Maximum Humidity 80    
Minimum Humidity 6    
Precipitation  
Precipitation 0.00 in 0.02 in 0.28 in (2009)
Month to date precipitation 0.21  
Year to date precipitation 1.48  
Snow  
Snow 0.00 in - - ()
Month to date snowfall  
Since 1 July snowfall  
Snow Depth -    
Sea Level Pressure  
Sea Level Pressure 29.73 in    
Wind  
Wind Speed 15 mph (WNW)    
Max Wind Speed 41 mph    
Max Gust Speed 55 mph    
Visibility 8 miles    
Events      
T = Trace of Precipitation, MM = Missing Value Source: NWS Daily Summary

Daily Weather History Graph

Daily Weather History Graph

Search for Another Location

Airport or City:

Trip Planner

Search our weather history database for the weather conditions in past years. The results will help you decide how hot, cold, wet, or windy it might be!

Date:

Astronomy

Mar. 11, 2014 Rise Set
Actual Time 8:04 AM CDT 7:54 PM CDT
Civil Twilight 7:40 AM CDT 8:19 PM CDT
Nautical Twilight 7:12 AM CDT 8:47 PM CDT
Astronomical Twilight 6:43 AM CDT 9:15 PM CDT
Moon 3:45 PM CDT (3/11) 4:46 AM CDT (3/11)
Length of Visible Light 12h 38m
Length of Day
11h 50m
Waxing Gibbous, 78% of the Moon is Illuminated
Mar 11
Waxing Gibbous
Mar 16
Full
Mar 23
Last Quarter
Mar 30
New
Apr 7
First Quarter

Hourly Weather History & Observations

Time (CDT) Temp. Dew Point Humidity Pressure Visibility Wind Dir Wind Speed Gust Speed Precip Events Conditions
12:53 AM 55.9 °F 46.0 °F 69% 29.76 in 10.0 mi South 13.8 mph - N/A   Clear
1:53 AM 54.0 °F 46.0 °F 75% 29.73 in 10.0 mi South 13.8 mph - N/A   Clear
2:53 AM 52.0 °F 46.0 °F 80% 29.72 in 10.0 mi South 11.5 mph - N/A   Clear
3:53 AM 51.1 °F 44.1 °F 77% 29.69 in 10.0 mi SSW 8.1 mph - N/A   Clear
4:53 AM 50.0 °F 43.0 °F 77% 29.66 in 10.0 mi SSW 6.9 mph - N/A   Clear
5:53 AM 48.9 °F 39.0 °F 69% 29.64 in 10.0 mi SW 8.1 mph - N/A   Clear
6:53 AM 48.9 °F 36.0 °F 61% 29.65 in 10.0 mi SW 8.1 mph - N/A   Clear
7:53 AM 48.0 °F 36.0 °F 63% 29.65 in 10.0 mi SW 6.9 mph - N/A   Clear
8:53 AM 48.0 °F 36.0 °F 63% 29.67 in 10.0 mi WSW 4.6 mph - N/A   Clear
9:53 AM 60.1 °F 32.0 °F 35% 29.68 in 10.0 mi West 9.2 mph - N/A   Clear
10:53 AM 68.0 °F 26.1 °F 21% 29.68 in 10.0 mi West 16.1 mph 20.7 mph N/A   Clear
11:53 AM 73.0 °F 23.0 °F 15% 29.68 in 10.0 mi West 19.6 mph 27.6 mph N/A   Clear
12:53 PM 78.1 °F 19.9 °F 11% 29.66 in 2.5 mi WNW 19.6 mph 25.3 mph N/A   Haze
1:04 PM 79.0 °F 21.9 °F 12% 29.77 in 8.0 mi West 13.8 mph - N/A   Clear
1:53 PM 81.0 °F 18.0 °F 10% 29.64 in 7.0 mi WNW 19.6 mph 31.1 mph N/A   Clear
2:53 PM 81.0 °F 15.1 °F 8% 29.63 in 10.0 mi WNW 15.0 mph 24.2 mph N/A   Clear
3:53 PM 82.0 °F 10.9 °F 7% 29.62 in 8.0 mi NW 17.3 mph 24.2 mph N/A   Clear
4:53 PM 82.9 °F 9.0 °F 6% 29.60 in 10.0 mi NW 16.1 mph 26.5 mph N/A   Clear
5:53 PM 82.0 °F 8.1 °F 6% 29.62 in 10.0 mi WNW 10.4 mph - N/A   Clear
6:53 PM 81.0 °F 7.0 °F 6% 29.63 in 10.0 mi WNW 11.5 mph 19.6 mph N/A   Clear
7:53 PM 75.9 °F 6.1 °F 7% 29.68 in 10.0 mi NW 11.5 mph - N/A   Clear
8:53 PM 71.1 °F 5.0 °F 8% 29.71 in 10.0 mi NNW 6.9 mph - N/A   Clear
9:53 PM 66.9 °F 5.0 °F 9% 29.75 in 10.0 mi NNW 8.1 mph - N/A   Clear
10:41 PM 64.0 °F 19.9 °F 18% 29.91 in 1.8 mi North 40.3 mph 49.5 mph N/A   Haze
10:43 PM 64.0 °F 27.0 °F 25% 29.92 in 1.2 mi NNE 40.3 mph 49.5 mph N/A   Haze
10:53 PM 62.1 °F 33.1 °F 34% 29.84 in 0.8 mi NNE 40.3 mph 52.9 mph N/A   Haze
11:03 PM 60.1 °F 33.1 °F 36% 29.95 in 1.0 mi NNE 41.4 mph 55.2 mph N/A   Haze
11:24 PM 57.9 °F 32.0 °F 37% 29.97 in 1.5 mi NNE 36.8 mph 50.6 mph N/A   Haze
11:53 PM 54.0 °F 32.0 °F 43% 29.92 in 1.5 mi NNE 34.5 mph 48.3 mph N/A   Haze